N0ZMJ-3 Weather Reports


Display with metric or nautical units.
time (UTC)temp
F
wind
direction
speed
MPH
gust
MPH
rain 1hr
in
rain 24hr
in
rain mn
in
humidity
%
barometer
mb
20260901082500 62 360 0.0 0.0 0.00 0.00 0.00 100 1012.6
20260901082428 62 360 0.0 0.0 0.00 0.00 0.00 100 1012.6
20260901081800 62 360 0.0 0.0 0.00 0.00 0.00 100 1012.8
20260901081427 62 360 0.0 0.0 0.00 0.00 0.00 100 1012.7
20260901081059 62 360 0.0 0.0 0.00 0.00 0.00 100 1012.7
20260901080427 63 360 0.0 2.0 0.00 0.00 0.00 100 1012.7
20260901080400 63 360 0.0 2.0 0.00 0.00 0.00 100 1012.7
20260901075659 63 360 0.0 2.0 0.00 0.00 0.00 100 1012.8
20260901075427 63 320 0.0 0.0 0.00 0.00 0.00 100 1012.9
20260901074959 63 320 0.0 0.0 0.00 0.00 0.00 100 1012.9
20260901074427 63 320 0.0 0.0 0.00 0.00 0.00 100 1012.9
20260901074301 63 320 0.0 0.0 0.00 0.00 0.00 100 1012.9
20260901073602 63 320 0.0 0.0 0.00 0.00 0.00 100 1012.8
20260901073429 63 320 0.0 0.0 0.00 0.00 0.00 100 1012.8
20260901072900 63 320 0.0 0.0 0.00 0.00 0.00 100 1012.8
20260901072429 63 320 0.0 0.0 0.00 0.00 0.00 100 1012.9
20260901072203 63 320 0.0 0.0 0.00 0.00 0.00 100 1012.9
20260901071500 64 320 0.0 3.0 0.00 0.00 0.00 100 1012.9
20260901071428 64 320 0.0 3.0 0.00 0.00 0.00 100 1012.9
20260901070801 64 319 0.0 1.0 0.00 0.00 0.00 100 1013.0
20260901070428 64 320 0.0 0.0 0.00 0.00 0.00 100 1013.1
20260901070100 64 320 0.0 0.0 0.00 0.00 0.00 100 1013.1
20260901065428 64 320 0.0 0.0 0.00 0.00 0.00 100 1013.3
20260901065400 64 320 0.0 0.0 0.00 0.00 0.00 100 1013.3
20260901064659 65 320 0.0 0.0 0.00 0.00 0.00 100 1013.2
20260901064427 65 320 0.0 0.0 0.00 0.00 0.00 100 1013.3
20260901064001 65 320 0.0 0.0 0.00 0.00 0.00 100 1013.3
20260901063427 65 320 0.0 0.0 0.00 0.00 0.00 100 1013.5
20260901063259 65 320 0.0 0.0 0.00 0.00 0.00 100 1013.5
20260901062602 65 320 0.0 0.0 0.00 0.00 0.00 100 1013.4
20260901062427 65 320 0.0 0.0 0.00 0.00 0.00 100 1013.4
20260901061902 66 320 0.0 0.0 0.00 0.00 0.00 100 1013.4
20260901061429 66 320 0.0 0.0 0.00 0.00 0.00 100 1013.4
20260901061201 66 320 0.0 0.0 0.00 0.00 0.00 100 1013.4
20260901060501 66 320 0.0 0.0 0.00 0.00 0.00 100 1013.6
20260901060429 66 320 0.0 0.0 0.00 0.00 0.00 100 1013.6
20260901055801 66 320 0.0 0.0 0.00 0.00 0.00 100 1013.7
20260901055428 66 320 0.0 0.0 0.00 0.00 0.00 100 1013.7
20260901055106 66 320 0.0 0.0 0.00 0.00 0.00 100 1013.7
20260901054428 66 320 0.0 0.0 0.00 0.00 0.00 100 1013.6
20260901054401 66 320 0.0 0.0 0.00 0.00 0.00 100 1013.6
20260901053658 66 320 0.0 0.0 0.00 0.00 0.00 100 1013.7
20260901053427 66 320 0.0 0.0 0.00 0.00 0.00 100 1013.8
20260901052958 66 320 0.0 0.0 0.00 0.00 0.00 100 1013.7
20260901052427 66 320 0.0 0.0 0.00 0.00 0.00 100 1013.7
20260901052259 66 320 0.0 0.0 0.00 0.00 0.00 100 1013.7
20260901051603 66 320 0.0 1.0 0.00 0.00 0.00 100 1013.7
20260901051427 66 320 0.0 1.0 0.00 0.00 0.00 100 1013.7
20260901050859 66 320 0.0 0.0 0.00 0.00 0.00 100 1013.6
20260901050429 66 320 0.0 0.0 0.00 0.00 0.00 100 1013.7
20260901050200 66 320 0.0 0.0 0.00 0.00 0.00 100 1013.7
20260901045501 66 320 0.0 1.0 0.00 0.00 0.00 100 1013.4
20260901045429 66 320 0.0 1.0 0.00 0.00 0.00 100 1013.4
20260901044801 66 320 0.0 1.0 0.00 0.00 0.00 100 1013.3
20260901044428 67 320 0.0 0.0 0.00 0.00 0.00 100 1013.4
20260901044101 67 320 0.0 0.0 0.00 0.00 0.00 100 1013.4
20260901043428 67 320 0.0 0.0 0.00 0.00 0.00 100 1013.2
20260901043402 67 320 0.0 0.0 0.00 0.00 0.00 100 1013.2
20260901042700 67 320 0.0 0.0 0.00 0.00 0.00 100 1013.2
20260901042428 68 320 0.0 0.0 0.00 0.00 0.00 100 1013.2
20260901042000 68 320 0.0 0.0 0.00 0.00 0.00 100 1013.1
20260901041428 68 320 0.0 0.0 0.00 0.00 0.00 99 1013.1
20260901041302 68 320 0.0 0.0 0.00 0.00 0.00 99 1013.1
20260901040600 68 320 0.0 0.0 0.00 0.00 0.00 99 1013.1
20260901040428 68 320 0.0 0.0 0.00 0.00 0.00 98 1013.0
20260901035900 69 320 0.0 0.0 0.00 0.00 0.00 98 1013.0
20260901035428 69 320 0.0 0.0 0.00 0.00 0.00 98 1013.0
20260901035159 69 320 0.0 0.0 0.00 0.00 0.00 98 1013.0
20260901034501 69 319 0.0 1.0 0.00 0.00 0.00 97 1013.1
20260901034428 69 319 0.0 1.0 0.00 0.00 0.00 97 1013.1
20260901033804 69 320 0.0 0.0 0.00 0.00 0.00 97 1013.1
20260901033427 69 320 0.0 0.0 0.00 0.00 0.00 96 1013.1
20260901033059 69 320 0.0 0.0 0.00 0.00 0.00 96 1013.1
20260901032427 69 320 0.0 0.0 0.00 0.00 0.00 96 1012.9
20260901032359 69 320 0.0 0.0 0.00 0.00 0.00 96 1012.9
20260901031659 69 320 0.0 0.0 0.00 0.00 0.00 96 1012.9
20260901031427 70 320 0.0 0.0 0.00 0.00 0.00 95 1012.8
20260901031002 70 320 0.0 0.0 0.00 0.00 0.00 95 1012.9
20260901030427 70 320 0.0 0.0 0.00 0.00 0.00 94 1012.8
20260901030259 70 320 0.0 0.0 0.00 0.00 0.00 94 1012.8
20260901025600 70 320 0.0 0.0 0.00 0.00 0.00 94 1012.7
20260901025427 70 320 0.0 0.0 0.00 0.00 0.00 93 1012.7
20260901024902 70 320 0.0 0.0 0.00 0.00 0.00 93 1012.7
20260901024429 70 320 0.0 0.0 0.00 0.00 0.00 92 1012.7
20260901024201 70 320 0.0 0.0 0.00 0.00 0.00 92 1012.7
20260901023504 71 320 0.0 0.0 0.00 0.00 0.00 90 1012.6
20260901023429 71 320 0.0 0.0 0.00 0.00 0.00 90 1012.6
20260901022802 71 320 0.0 0.0 0.00 0.00 0.00 89 1012.7
20260901022428 71 320 0.0 1.0 0.00 0.00 0.00 88 1012.5
20260901022059 71 320 0.0 1.0 0.00 0.00 0.00 88 1012.5
20260901021427 72 320 0.0 0.0 0.00 0.00 0.00 88 1012.6
20260901021359 72 320 0.0 0.0 0.00 0.00 0.00 88 1012.6
20260901020659 72 320 0.0 2.0 0.00 0.00 0.00 86 1012.5
20260901020427 72 320 0.0 2.0 0.00 0.00 0.00 86 1012.4
20260901015959 72 319 0.0 2.0 0.00 0.00 0.00 86 1012.4
20260901015427 72 320 0.0 0.0 0.00 0.00 0.00 85 1012.2
20260901015259 72 320 0.0 0.0 0.00 0.00 0.00 85 1012.2
20260901014600 73 320 0.0 0.0 0.00 0.00 0.00 85 1012.1
20260901014429 73 320 0.0 0.0 0.00 0.00 0.00 84 1012.0
20260901013902 73 320 0.0 0.0 0.00 0.00 0.00 84 1012.0
20260901013429 74 320 0.0 0.0 0.00 0.00 0.00 83 1011.9
20260901013200 74 320 0.0 0.0 0.00 0.00 0.00 83 1011.9
20260901012500 74 320 0.0 0.0 0.00 0.00 0.00 81 1012.1
20260901012429 74 320 0.0 0.0 0.00 0.00 0.00 81 1012.1
20260901011802 75 320 0.0 0.0 0.00 0.00 0.00 81 1012.0
20260901011427 75 320 0.0 0.0 0.00 0.00 0.00 79 1012.0
20260901011100 75 320 0.0 0.0 0.00 0.00 0.00 79 1012.0
20260901010427 75 320 0.0 0.0 0.00 0.00 0.00 78 1012.1
20260901010359 75 320 0.0 0.0 0.00 0.00 0.00 78 1012.1
20260901005700 76 320 0.0 0.0 0.00 0.00 0.00 77 1012.1
20260901005427 76 320 0.0 0.0 0.00 0.00 0.00 76 1012.1
20260901004959 76 320 0.0 0.0 0.00 0.00 0.00 75 1012.0
20260901004427 77 320 0.0 0.0 0.00 0.00 0.00 74 1012.0
20260901004300 77 320 0.0 0.0 0.00 0.00 0.00 74 1012.0
20260901003601 77 320 0.0 0.0 0.00 0.00 0.00 72 1012.0
20260901003429 77 320 0.0 0.0 0.00 0.00 0.00 71 1012.1
20260901002900 78 320 0.0 0.0 0.00 0.00 0.00 71 1012.0
20260901002429 78 320 0.0 0.0 0.00 0.00 0.00 70 1011.9
20260901002200 78 320 0.0 0.0 0.00 0.00 0.00 70 1011.9
20260901001505 79 320 0.0 0.0 0.00 0.00 0.00 69 1011.9
20260901001429 79 320 0.0 0.0 0.00 0.00 0.00 69 1011.9
20260901000803 79 320 0.0 2.0 0.00 0.00 0.00 68 1011.9
20260901000428 79 320 0.0 2.0 0.00 0.00 0.00 67 1011.9
20260901000103 79 320 0.0 2.0 0.00 0.00 0.00 67 1011.9
20260831235428 79 319 0.0 2.0 0.00 0.00 0.00 66 1012.0
20260831235403 79 319 0.0 2.0 0.00 0.00 0.00 66 1012.0
20260831234659 79 320 0.0 1.0 0.00 0.00 0.00 64 1011.9
20260831234428 80 319 0.0 2.0 0.00 0.00 0.00 67 1012.1
20260831234003 80 319 0.0 2.0 0.00 0.00 0.00 66 1012.0
20260831233428 80 319 0.0 1.0 0.00 0.00 0.00 68 1012.1
20260831233259 80 319 0.0 1.0 0.00 0.00 0.00 68 1012.1
20260831232600 79 319 0.0 1.0 0.00 0.00 0.00 66 1012.1
20260831232428 80 319 0.0 1.0 0.00 0.00 0.00 66 1012.0
20260831231859 80 320 0.0 2.0 0.00 0.00 0.00 65 1012.0
20260831231428 80 319 0.0 3.0 0.00 0.00 0.00 65 1012.1
20260831231200 80 319 0.0 3.0 0.00 0.00 0.00 65 1012.1
20260831230501 80 323 0.0 3.0 0.00 0.00 0.00 63 1012.1
20260831230428 80 323 0.0 3.0 0.00 0.00 0.00 63 1012.1
20260831225810 80 323 0.0 3.0 0.00 0.00 0.00 63 1012.2
20260831225428 80 320 1.0 3.0 0.00 0.00 0.00 64 1012.3
20260831225101 80 320 1.0 3.0 0.00 0.00 0.00 64 1012.3
20260831224428 80 301 0.0 3.0 0.00 0.00 0.00 64 1012.1
20260831224401 80 301 0.0 3.0 0.00 0.00 0.00 64 1012.1
20260831223703 80 292 0.0 3.0 0.00 0.00 0.00 64 1012.2
20260831223428 80 276 1.0 2.0 0.00 0.00 0.00 66 1012.2
20260831223001 80 304 0.0 2.0 0.00 0.00 0.00 65 1012.2
20260831222428 80 304 0.0 2.0 0.00 0.00 0.00 65 1012.2
20260831222300 80 304 0.0 2.0 0.00 0.00 0.00 65 1012.2
20260831221603 80 292 0.0 2.0 0.00 0.00 0.00 66 1012.3
20260831221428 80 276 1.0 3.0 0.00 0.00 0.00 64 1012.1
20260831220900 81 193 2.0 3.0 0.00 0.00 0.00 66 1012.1
20260831220429 81 328 0.0 2.0 0.00 0.00 0.00 66 1012.2
20260831220203 81 328 0.0 2.0 0.00 0.00 0.00 66 1012.2
20260831215505 81 232 0.0 3.0 0.00 0.00 0.00 66 1012.2
20260831215429 81 232 0.0 3.0 0.00 0.00 0.00 66 1012.2
20260831214802 81 229 2.0 5.0 0.00 0.00 0.00 65 1012.1
20260831214428 81 229 1.0 5.0 0.00 0.00 0.00 65 1012.1
20260831214101 81 229 1.0 5.0 0.00 0.00 0.00 65 1012.1
20260831213428 81 246 1.0 4.0 0.00 0.00 0.00 65 1012.1
20260831213401 81 246 1.0 4.0 0.00 0.00 0.00 65 1012.1
20260831212700 82 247 0.0 4.0 0.00 0.00 0.00 64 1012.2
20260831212428 82 240 0.0 7.0 0.00 0.00 0.00 63 1012.3
20260831212001 81 227 2.0 7.0 0.00 0.00 0.00 63 1012.4
20260831211428 81 222 2.0 6.0 0.00 0.00 0.00 65 1012.4
20260831211303 81 222 2.0 6.0 0.00 0.00 0.00 65 1012.4
20260831210600 81 226 1.0 4.0 0.00 0.00 0.00 67 1012.4
20260831210428 81 219 2.0 6.0 0.00 0.00 0.00 66 1012.4
20260831205900 80 300 2.0 6.0 0.00 0.00 0.00 67 1012.5
20260831205429 80 1 0.0 3.0 0.00 0.00 0.00 67 1012.5
20260831205159 80 1 0.0 3.0 0.00 0.00 0.00 67 1012.5
20260831204500 80 221 0.0 3.0 0.00 0.00 0.00 66 1012.6
20260831204429 80 221 0.0 3.0 0.00 0.00 0.00 66 1012.6
20260831203801 80 190 0.0 3.0 0.00 0.00 0.00 64 1012.5
20260831203427 80 251 0.0 4.0 0.00 0.00 0.00 64 1012.6
20260831203059 80 251 0.0 4.0 0.00 0.00 0.00 64 1012.6
20260831202427 80 335 1.0 4.0 0.00 0.00 0.00 64 1012.5
20260831202359 80 335 1.0 4.0 0.00 0.00 0.00 64 1012.5
20260831201701 80 330 1.0 5.0 0.00 0.00 0.00 65 1012.4
20260831201427 80 334 0.0 5.0 0.00 0.00 0.00 65 1012.4
20260831200959 80 313 1.0 3.0 0.00 0.00 0.00 64 1012.5
20260831200427 80 5 1.0 3.0 0.00 0.00 0.00 63 1012.5
20260831200258 80 5 1.0 3.0 0.00 0.00 0.00 63 1012.5
20260831195559 80 315 1.0 3.0 0.00 0.00 0.00 65 1012.4
20260831195427 80 183 2.0 3.0 0.00 0.00 0.00 66 1012.3
20260831194906 80 221 1.0 3.0 0.00 0.00 0.00 65 1012.3
20260831194429 80 5 1.0 3.0 0.00 0.00 0.00 65 1012.3
20260831194200 80 5 1.0 3.0 0.00 0.00 0.00 65 1012.3
20260831193504 80 252 1.0 5.0 0.00 0.00 0.00 65 1012.5
20260831193428 80 252 1.0 5.0 0.00 0.00 0.00 65 1012.5
20260831192800 80 266 1.0 4.0 0.00 0.00 0.00 63 1012.5
20260831192428 80 237 2.0 4.0 0.00 0.00 0.00 63 1012.4
20260831192102 80 237 2.0 4.0 0.00 0.00 0.00 63 1012.4
20260831191428 80 304 1.0 5.0 0.00 0.00 0.00 62 1012.6
20260831191400 80 304 1.0 5.0 0.00 0.00 0.00 62 1012.6
20260831190703 80 223 2.0 5.0 0.00 0.00 0.00 60 1012.6
20260831190428 80 241 2.0 6.0 0.00 0.00 0.00 60 1012.5
20260831190001 80 273 1.0 6.0 0.00 0.00 0.00 66 1012.5
20260831185428 80 263 2.0 6.0 0.00 0.00 0.00 65 1012.4
20260831185259 80 263 2.0 6.0 0.00 0.00 0.00 65 1012.4
20260831184601 80 236 1.0 5.0 0.00 0.00 0.00 66 1012.5
20260831184428 80 342 1.0 5.0 0.00 0.00 0.00 63 1012.4
20260831183900 80 234 1.0 4.0 0.00 0.00 0.00 64 1012.5
20260831183429 80 10 2.0 4.0 0.00 0.00 0.00 64 1012.4
20260831183207 80 10 2.0 4.0 0.00 0.00 0.00 64 1012.4
20260831182501 80 279 1.0 3.0 0.00 0.00 0.00 67 1012.3
20260831182427 80 279 1.0 3.0 0.00 0.00 0.00 67 1012.3
20260831181800 79 299 1.0 3.0 0.00 0.00 0.00 64 1012.3
20260831181427 79 334 0.0 3.0 0.00 0.00 0.00 64 1012.4
20260831181100 79 334 0.0 3.0 0.00 0.00 0.00 64 1012.4
20260831180427 79 29 1.0 4.0 0.00 0.00 0.00 66 1012.3
20260831180400 79 29 1.0 4.0 0.00 0.00 0.00 66 1012.3
20260831175705 79 29 1.0 4.0 0.00 0.00 0.00 67 1012.2
20260831175429 78 35 1.0 4.0 0.00 0.00 0.00 70 1012.3
20260831175000 78 36 1.0 4.0 0.00 0.00 0.00 70 1012.3
20260831174429 78 33 1.0 3.0 0.00 0.00 0.00 73 1012.5
20260831174300 78 33 1.0 3.0 0.00 0.00 0.00 73 1012.5
20260831173603 77 3 0.0 2.0 0.00 0.00 0.00 73 1012.5
20260831173428 77 3 1.0 4.0 0.00 0.00 0.00 74 1012.5
20260831172902 77 343 2.0 4.0 0.00 0.00 0.00 75 1012.5
20260831172428 77 250 1.0 4.0 0.00 0.00 0.00 78 1012.6
20260831172203 77 250 1.0 4.0 0.00 0.00 0.00 78 1012.6
20260831171500 76 14 1.0 4.0 0.00 0.00 0.00 78 1012.6
20260831171428 76 14 1.0 4.0 0.00 0.00 0.00 78 1012.6
20260831170800 76 360 1.0 4.0 0.00 0.00 0.00 79 1012.6
20260831170428 76 360 1.0 4.0 0.00 0.00 0.00 79 1012.6
20260831170100 76 360 1.0 4.0 0.00 0.00 0.00 79 1012.6
20260831165428 75 347 1.0 5.0 0.00 0.00 0.00 82 1012.7
20260831165400 75 347 1.0 5.0 0.00 0.00 0.00 82 1012.7
20260831164701 75 223 0.0 5.0 0.00 0.00 0.00 83 1012.7
20260831164427 75 360 1.0 3.0 0.00 0.00 0.00 82 1012.5
20260831164002 75 21 0.0 3.0 0.00 0.00 0.00 84 1012.6
20260831163428 75 21 1.0 3.0 0.00 0.00 0.00 84 1012.6
20260831162603 74 15 1.0 4.0 0.00 0.00 0.00 84 1012.7
20260831162428 74 333 1.0 4.0 0.00 0.00 0.00 85 1012.7
20260831161859 74 0 1.0 3.0 0.00 0.00 0.00 87 1012.6
20260831161428 73 360 1.0 3.0 0.00 0.00 0.00 87 1012.6
20260831161200 73 360 1.0 3.0 0.00 0.00 0.00 87 1012.6
20260831160502 73 360 0.0 4.0 0.00 0.00 0.00 88 1012.7
20260831160428 73 360 0.0 4.0 0.00 0.00 0.00 88 1012.7
20260831155759 73 9 1.0 5.0 0.00 0.00 0.00 88 1012.6
20260831155427 72 358 2.0 5.0 0.00 0.00 0.00 88 1012.5
20260831155103 72 358 2.0 5.0 0.00 0.00 0.00 88 1012.5
20260831154427 72 58 1.0 5.0 0.00 0.00 0.00 89 1012.4
20260831154400 72 58 1.0 5.0 0.00 0.00 0.00 89 1012.4
20260831153659 72 17 2.0 5.0 0.00 0.00 0.00 90 1012.4
20260831153427 72 357 2.0 5.0 0.00 0.00 0.00 90 1012.4
20260831153000 71 333 1.0 4.0 0.00 0.00 0.00 92 1012.4
20260831152428 71 343 1.0 4.0 0.00 0.00 0.00 93 1012.3
20260831152306 71 343 1.0 4.0 0.00 0.00 0.00 93 1012.3
20260831151605 70 340 2.0 4.0 0.00 0.00 0.00 94 1012.3
20260831151428 70 353 2.0 5.0 0.00 0.00 0.00 93 1012.2
20260831150907 70 328 2.0 5.0 0.00 0.00 0.00 94 1012.2
20260831150428 70 323 1.0 4.0 0.00 0.00 0.00 94 1012.2
20260831150200 70 323 1.0 4.0 0.00 0.00 0.00 94 1012.2
20260831145500 70 340 2.0 4.0 0.00 0.00 0.00 96 1012.2
20260831145428 70 340 2.0 4.0 0.00 0.00 0.00 96 1012.2
20260831144802 70 258 2.0 5.0 0.00 0.00 0.00 96 1012.3
20260831144427 70 284 1.0 5.0 0.00 0.00 0.00 96 1012.3
20260831144104 70 284 1.0 5.0 0.00 0.00 0.00 96 1012.3
20260831143427 70 275 1.0 6.0 0.00 0.00 0.00 98 1012.1
20260831143358 70 275 1.0 6.0 0.00 0.00 0.00 98 1012.1
20260831142659 70 254 1.0 5.0 0.00 0.00 0.00 98 1012.1
20260831142427 69 318 1.0 5.0 0.00 0.00 0.00 99 1012.3
20260831142001 69 305 1.0 4.0 0.00 0.00 0.00 99 1012.1
20260831141429 69 259 1.0 4.0 0.00 0.00 0.00 100 1011.8
20260831141301 69 259 1.0 4.0 0.00 0.00 0.00 100 1011.8
20260831140600 69 258 1.0 4.0 0.00 0.00 0.00 100 1011.9
20260831140429 69 346 1.0 4.0 0.00 0.00 0.00 100 1011.8
20260831135902 69 360 0.0 3.0 0.00 0.00 0.00 100 1011.7
20260831135428 68 1 1.0 3.0 0.00 0.00 0.00 100 1011.8
20260831135200 68 1 1.0 3.0 0.00 0.00 0.00 100 1011.8
20260831134501 68 291 0.0 5.0 0.00 0.00 0.00 100 1011.6
20260831134428 68 291 0.0 5.0 0.00 0.00 0.00 100 1011.6
20260831133802 68 210 1.0 4.0 0.00 0.00 0.00 100 1011.5
20260831133428 68 266 0.0 5.0 0.00 0.00 0.00 100 1011.3
20260831133101 68 266 0.0 5.0 0.00 0.00 0.00 100 1011.3
20260831132428 67 285 1.0 5.0 0.00 0.00 0.00 100 1011.1
20260831132400 67 285 1.0 5.0 0.00 0.00 0.00 100 1011.1
20260831131659 67 278 0.0 4.0 0.00 0.00 0.00 100 1011.1
20260831131428 67 310 1.0 6.0 0.00 0.00 0.00 100 1010.9
20260831131000 66 310 1.0 6.0 0.00 0.00 0.00 100 1010.9
20260831130427 66 302 0.0 7.0 0.00 0.00 0.00 100 1011.0
20260831130300 66 302 0.0 7.0 0.00 0.00 0.00 100 1011.0
20260831125559 66 218 0.0 7.0 0.00 0.00 0.00 100 1011.0
20260831125427 66 205 1.0 4.0 0.00 0.00 0.00 100 1010.9
20260831124900 66 267 1.0 4.0 0.00 0.00 0.00 100 1010.8
20260831124427 66 250 1.0 4.0 0.00 0.00 0.00 100 1010.5
20260831124158 66 250 1.0 4.0 0.00 0.00 0.00 100 1010.5
20260831123459 65 170 0.0 0.0 0.00 0.00 0.00 100 1010.5
20260831123427 65 170 0.0 0.0 0.00 0.00 0.00 100 1010.5
20260831122759 65 170 0.0 0.0 0.00 0.00 0.00 100 1010.1
20260831122427 66 170 0.0 0.0 0.00 0.00 0.00 100 1010.1
20260831122100 66 170 0.0 0.0 0.00 0.00 0.00 100 1010.1
20260831121429 66 170 0.0 1.0 0.00 0.00 0.00 100 1010.0
20260831121400 66 170 0.0 1.0 0.00 0.00 0.00 100 1010.0
20260831120708 66 170 0.0 1.0 0.00 0.00 0.00 100 1009.9
20260831120428 66 170 0.0 0.0 0.00 0.00 0.00 100 1009.8
20260831120001 66 170 0.0 0.0 0.00 0.00 0.00 100 1010.0
20260831115428 66 170 0.0 0.0 0.00 0.00 0.00 100 1009.9
20260831115306 66 170 0.0 0.0 0.00 0.00 0.00 100 1009.9
20260831114559 67 170 0.0 0.0 0.00 0.00 0.00 100 1009.8
20260831114428 67 170 0.0 0.0 0.00 0.00 0.00 100 1009.8
20260831113901 67 170 0.0 0.0 0.00 0.00 0.00 100 1009.8
20260831113428 67 170 0.0 1.0 0.00 0.00 0.00 100 1009.7
20260831113200 67 170 0.0 1.0 0.00 0.00 0.00 100 1009.7
20260831112427 67 170 0.0 0.0 0.00 0.00 0.00 100 1009.5
20260831111759 68 170 0.0 1.0 0.00 0.00 0.00 100 1009.7
20260831111427 68 170 0.0 1.0 0.00 0.00 0.00 100 1009.4
20260831111100 68 170 0.0 1.0 0.00 0.00 0.00 100 1009.4
20260831110427 68 170 0.0 0.0 0.00 0.00 0.00 100 1009.2
20260831110402 68 170 0.0 0.0 0.00 0.00 0.00 100 1009.2
20260831105703 68 170 0.0 1.0 0.00 0.00 0.00 100 1009.1
20260831105427 68 170 0.0 1.0 0.00 0.00 0.00 100 1008.9
20260831105002 68 170 0.0 1.0 0.00 0.00 0.00 100 1008.8
20260831104429 69 170 0.0 0.0 0.00 0.00 0.00 100 1008.8
20260831104306 69 170 0.0 0.0 0.00 0.00 0.00 100 1008.8
20260831103601 69 170 0.0 0.0 0.00 0.00 0.00 100 1008.6
20260831103428 69 170 0.0 0.0 0.00 0.00 0.00 100 1008.6
20260831102427 69 170 0.0 0.0 0.00 0.00 0.00 100 1008.3
20260831102159 69 170 0.0 0.0 0.00 0.00 0.00 100 1008.3
20260831101501 69 170 0.0 0.0 0.00 0.00 0.00 100 1008.4
20260831101427 69 170 0.0 0.0 0.00 0.00 0.00 100 1008.4
20260831100802 70 170 0.0 1.0 0.00 0.00 0.00 100 1008.3
20260831100427 70 170 0.0 1.0 0.00 0.00 0.00 100 1008.3
20260831095427 70 170 0.0 2.0 0.00 0.00 0.00 100 1008.3
20260831095404 70 170 0.0 2.0 0.00 0.00 0.00 100 1008.3
20260831094700 70 170 0.0 2.0 0.00 0.00 0.00 100 1008.3
20260831094429 70 170 0.0 2.0 0.00 0.00 0.00 100 1008.3
20260831094001 70 170 0.0 3.0 0.00 0.00 0.00 100 1008.3
20260831093429 70 170 0.0 3.0 0.00 0.00 0.00 100 1008.3
20260831093300 70 170 0.0 3.0 0.00 0.00 0.00 100 1008.3
20260831092605 70 330 0.0 1.0 0.00 0.00 0.00 100 1008.3
20260831092429 70 329 0.0 1.0 0.00 0.00 0.00 100 1008.2
20260831091900 70 329 0.0 1.0 0.00 0.00 0.00 100 1007.9
20260831091428 70 329 0.0 1.0 0.00 0.00 0.00 100 1007.9
20260831091200 70 329 0.0 1.0 0.00 0.00 0.00 100 1007.9
20260831090508 70 330 0.0 0.0 0.00 0.00 0.00 100 1007.9
20260831090428 70 330 0.0 0.0 0.00 0.00 0.00 100 1007.9
20260831085759 70 330 0.0 1.0 0.00 0.00 0.00 100 1007.7
20260831085428 70 330 0.0 3.0 0.00 0.00 0.00 100 1007.6
20260831085101 70 330 0.0 3.0 0.00 0.00 0.00 100 1007.6
20260831084428 70 331 0.0 3.0 0.00 0.00 0.00 100 1007.6
20260831084401 70 331 0.0 3.0 0.00 0.00 0.00 100 1007.6
20260831083705 69 338 1.0 4.0 0.00 0.00 0.00 100 1007.5
20260831083428 69 360 1.0 4.0 0.00 0.00 0.00 100 1007.3